This demonstration page uses our WeatherBlox Daily Observations layout. Learn more.

Left ArrowRight Arrow

41.86663, -103.66717

Hourly Observations for February 23, 2019

Temp ( °F °C ) Dew Point ( °F °C ) Humidity (%) Winds ( mph kmh ) Pressure ( in mb ) Visibility ( mi km ) Precip ( " mm )
12:53 am 00:53 Partly Cloudy with Mist and Fog 20 -6.7 19 -7.2 96 96 N N/A 30.00 1016 5 8 N/A
1:53 am 01:53 Partly Cloudy with Mist and Fog 18 -7.8 17 -8.3 96 96 NW 5 7 29.99 1016 4 6 N/A
2:53 am 02:53 Mostly Clear with Mist and Fog 19 -7.2 19 -7.2 100 100 NNW 6 9 29.96 1015 5 8 N/A
3:29 am 03:29 Partly Cloudy with Mist and Fog 18 -7.8 18 -7.8 100 100 W 3 6 30.08 1019 5 8 N/A
3:37 am 03:37 Mostly Cloudy with Mist and Fog 18 -7.8 17 -8.3 96 96 WNW 6 9 30.07 1018 5 8 N/A
3:53 am 03:53 Cloudy with Mist and Fog 17 -8.3 16 -8.9 95 95 NNW 5 7 29.96 1015 5 8 N/A
4:13 am 04:13 Partly Cloudy with Mist and Fog 15 -9.4 15 -9.4 100 100 WNW 6 9 30.10 1019 5 8 N/A
4:53 am 04:53 Clear with Mist and Fog 17 -8.3 17 -8.3 100 100 W 7 11 29.97 1015 6 10 N/A
5:53 am 05:53 Clear 17 -8.3 16 -8.9 95 95 NW 6 9 29.98 1015 7 11 N/A
6:53 am 06:53 Sunny 17 -8.3 15 -9.4 92 92 WNW 8 13 29.99 1016 8 13 N/A
7:53 am 07:53 Sunny 18 -7.8 16 -8.9 92 92 WNW 6 9 30.03 1017 8 13 N/A
8:53 am 08:53 Sunny 20 -6.7 17 -8.3 89 89 W 6 9 30.03 1017 9 14 N/A
9:53 am 09:53 Sunny 25 -3.9 15 -9.4 66 66 WNW 16 26 30.01 1016 10 16 N/A
10:53 am 10:53 Sunny 29 -1.7 15 -9.4 56 56 NW 18 30 30.01 1016 10 16 N/A
11:53 am 11:53 Sunny 33 0.6 16 -8.9 49 49 NW 18 30 29.99 1016 10 16 N/A
12:53 pm 12:53 Sunny 37 2.8 13 -10.6 37 37 NW 22 35 29.96 1014 10 16 N/A
1:53 pm 13:53 Sunny 38 3.3 13 -10.6 36 36 NW 20 31 29.96 1014 10 16 N/A
2:53 pm 14:53 Sunny 39 3.9 9 -12.8 29 29 NNW 15 24 29.97 1015 10 16 N/A
3:53 pm 15:53 Sunny 39 3.9 11 -11.7 31 31 N 22 35 29.99 1016 10 16 N/A
4:53 pm 16:53 Sunny 37 2.8 10 -12.2 33 33 NNW 18 30 30.03 1017 10 16 N/A
5:53 pm 17:53 Clear 31 -0.6 14 -10 49 49 NW 9 15 30.07 1018 10 16 N/A
6:53 pm 18:53 Clear 29 -1.7 14 -10 54 54 WNW 13 20 30.11 1020 10 16 N/A
7:53 pm 19:53 Clear 26 -3.3 14 -10 60 60 WNW 9 15 30.14 1021 10 16 N/A
8:53 pm 20:53 Clear 22 -5.6 14 -10 71 71 NW 3 6 30.17 1022 10 16 N/A
9:53 pm 21:53 Clear 17 -8.3 13 -10.6 84 84 NW 7 11 30.18 1022 10 16 N/A
10:53 pm 22:53 Clear 15 -9.4 11 -11.7 84 84 NW 6 9 30.18 1022 10 16 N/A
11:53 pm 23:53 Clear 16 -8.9 11 -11.7 80 80 WNW 3 6 30.17 1022 10 16 N/A

Powered by AerisWeather